[[{"header":{"parameterUnit":"m.s-1","parameterCategory":1,"la1":30.2991,"la2":30.254,"lo1":-89.0895,"lo2":-89.0444,"dy":0.0017,"dx":0.0017,"nx":28,"ny":28,"refTime":"2025-04-01T09:00:00:Z","depth":0,"parameterNumber":2,"parameterNumberName":"U-component_of_WINDS"},"data":[0,0,0,0,0,0,0,0,0,0,0,0,0,0,0,0,0,0,0,0,0,0,0,0,0,0,0,0,0,0,0,0,0,0,0,0,0,0,0,0,0,0,0,0,0,0,0,0,0,0,0,0,0,0,0,0,0,0,-5.2692,-5.2691,0,-5.2609,-5.2608,-5.2607,-5.2417,-5.2413,-5.2409,-5.2405,-5.2327,-5.2329,-5.2331,0,0,0,0,0,0,0,0,0,0,0,0,0,-5.2693,-5.2694,-5.2692,-5.2691,-5.269,-5.2609,-5.2608,-5.2607,-5.2418,-5.2413,-5.2408,-5.2404,-5.2327,-5.2329,-5.2331,0,0,0,0,0,0,0,0,0,0,0,0,0,-5.266,-5.2694,-5.2692,-5.2585,-5.2575,-5.2609,-5.2608,-5.2607,-5.2419,-5.2413,-5.2407,-5.2401,-5.2326,-5.2329,-5.2331,-5.2464,0,0,-5.2338,-5.2339,0,0,0,0,0,0,0,0,-5.2662,-5.266,-5.2602,-5.2593,-5.2581,-5.2517,-5.258,-5.2559,-5.242,-5.2478,-5.2405,-5.2398,-5.2396,-5.2392,-5.239,-5.2461,-5.2457,-5.2339,-5.234,-5.2341,-5.2342,0,0,0,0,0,0,0,-5.2665,-5.2663,-5.2659,-5.2601,-5.2589,-5.2544,-5.2533,-5.2575,-5.2472,-5.2473,-5.2459,-5.2451,-5.2389,-5.2388,-5.2387,-5.2456,-5.2338,-5.2341,-5.2342,-5.2343,-5.2634,-5.264,0,0,0,0,0,0,-5.2681,-5.2666,-5.2662,-5.2657,-5.2608,-5.2549,-5.2536,-5.2544,-5.247,-5.2453,-5.2456,-5.2443,-5.2387,-5.2384,-5.2383,-5.2535,-5.2341,-5.2343,-5.2345,-5.2628,-5.2635,-5.2642,0,0,0,0,0,0,-5.2682,-5.2683,-5.2665,-5.2657,-5.2652,-5.2555,-5.2565,-5.2545,-5.2544,-5.2458,-5.2439,-5.2474,-5.2382,-5.238,-5.2445,-5.2529,-5.2344,-5.2347,-5.262,-5.263,-5.2639,-5.2839,0,0,0,0,0,0,-5.2683,-5.2684,-5.2732,-5.266,-5.2653,-5.2727,-5.257,-5.2548,-5.2548,-5.2529,-5.2469,-5.2454,-5.2377,-5.2443,-5.2448,-5.2529,-5.2348,-5.2612,-5.2625,-5.2636,-5.2825,-5.2854,-5.288,0,0,0,0,0,-5.2684,-5.2793,-5.2735,-5.2736,-5.271,-5.2732,-5.2728,-5.2636,-5.2555,-5.2604,-5.2549,-5.2456,-5.252,-5.2451,-5.2455,-5.2539,-5.2607,-5.2621,-5.2635,-5.2812,-5.2849,-5.2879,0,0,0,0,0,0,-5.2879,-5.2781,-5.2716,-5.2805,-5.2778,-5.27,-5.2758,-5.2677,-5.2674,-5.2657,-5.2545,-5.2533,-5.2615,-5.2583,-5.2508,-5.2665,-5.2548,-5.2564,-5.2682,-5.2716,-5.2743,-5.2749,-5.235,0,0,0,0,0,-5.2933,-5.2956,-5.287,-5.2957,-5.2947,-5.2856,-5.2862,-5.2793,-5.2761,-5.275,-5.2699,-5.2674,-5.2688,-5.27,-5.2709,-5.282,-5.2805,-5.2879,-5.2907,-5.293,-5.2945,-5.3003,-5.3035,-5.2688,-5.2688,-5.2688,0,0,-5.3043,-5.2993,-5.3015,-5.2995,-5.2966,-5.2996,-5.2847,-5.2884,-5.2906,-5.2756,-5.2814,-5.2777,-5.2742,-5.2831,-5.2868,-5.2807,-5.3038,-5.2948,-5.2967,-5.2969,-5.3021,-5.3054,-5.3083,-5.2698,-5.2696,-5.2695,0,0,-5.326,-5.3223,-5.3292,-5.3266,-5.3223,-5.3162,-5.3179,-5.3113,-5.3082,-5.3138,-5.3027,-5.3052,-5.3079,-5.3059,-5.3052,-5.3264,-5.3179,-5.327,-5.3414,-5.3471,-5.3499,-5.3522,-5.3599,-5.3627,-5.3285,-5.3286,-5.3286,0,-5.3403,-5.344,-5.3338,-5.3382,-5.3378,-5.3242,-5.3312,-5.3292,-5.3257,-5.3258,-5.319,-5.3221,-5.3188,-5.3271,-5.3323,-5.3322,-5.3339,-5.3276,-5.3503,-5.3525,-5.3546,-5.3617,-5.3646,-5.3297,-5.3296,-5.3294,-5.3293,0,-5.3619,-5.3648,-5.3708,-5.3675,-5.3677,-5.3735,-5.3643,-5.3659,-5.3591,-5.3538,-5.3599,-5.3554,-5.3552,-5.3566,-5.3501,-5.3641,-5.3605,-5.3522,-5.3403,-5.3592,-5.3657,-5.3684,-5.3313,-5.3309,-5.3306,-5.3303,0,0,-5.3955,-5.3864,-5.3889,-5.3872,-5.3816,-5.3837,-5.389,-5.3885,-5.3902,-5.3882,-5.3925,-5.3951,-5.3874,-5.3867,-5.3798,-5.3849,-5.4021,-5.3759,-5.3757,-5.381,-5.4175,-5.4237,-5.4271,-5.3964,-5.3969,-5.3973,-5.4178,0,-5.4158,-5.4239,-5.415,-5.4251,-5.4277,-5.415,-5.4196,-5.4168,-5.4121,-5.4138,-5.4086,-5.4107,-5.4003,-5.3998,-5.4043,-5.3991,-5.4093,-5.3975,-5.4005,-5.4007,-5.4017,-5.4304,-5.437,-5.4565,-5.4202,-5.4207,-5.421,0,-5.4405,-5.4395,-5.4499,-5.4438,-5.4445,-5.4488,-5.4477,-5.4495,-5.4462,-5.4424,-5.4417,-5.4334,-5.4384,-5.4269,-5.4337,-5.4259,-5.4266,-5.4243,-5.4248,-5.4247,-5.412,-5.4312,-5.4625,-5.4655,-5.4249,-5.4246,-5.4243,0,-5.464,-5.4654,-5.4717,-5.4707,-5.4637,-5.467,-5.4643,-5.4604,-5.4608,-5.46,-5.4602,-5.4601,-5.4601,-5.4604,-5.4524,-5.4447,-5.4603,-5.4481,-5.4575,-5.4577,-5.4613,-5.4612,-5.4933,-5.4619,-5.4618,-5.4618,-5.4617,0,-5.4876,-5.4945,-5.4822,-5.4861,-5.4935,-5.4833,-5.491,-5.487,-5.4837,-5.4869,-5.476,-5.4792,-5.4684,-5.4706,-5.4645,-5.4711,-5.4712,-5.4685,-5.4668,-5.4694,-5.4698,-5.4697,-5.4682,-5.4625,-5.4624,-5.4622,-5.4621,0,-5.5151,-5.5071,-5.5132,-5.5061,-5.5045,-5.5103,-5.5042,-5.5078,-5.5023,-5.5065,-5.5069,-5.4985,-5.5005,-5.4926,-5.4933,-5.4892,-5.4991,-5.4952,-5.5002,-5.499,-5.5089,-5.5081,-5.542,-5.546,-5.5121,-5.5125,-5.5128,0,-5.5306,-5.5355,-5.5289,-5.5301,-5.528,-5.5301,-5.5304,-5.5207,-5.5215,-5.5182,-5.5222,-5.5233,-5.5236,-5.5275,-5.5216,-5.5222,-5.5182,-5.53,-5.5182,-5.5208,-5.5184,-5.5182,-5.5187,-5.5325,-5.5329,-5.5333,-5.5336,0,-5.5591,-5.5549,-5.5556,-5.5551,-5.5557,-5.5548,-5.5533,-5.555,-5.5445,-5.546,-5.5478,-5.5481,-5.5488,-5.5502,-5.5495,-5.5469,-5.5387,-5.5374,-5.5396,-5.5423,-5.5451,-5.5438,-5.5069,-5.5366,-5.5363,-5.5361,-5.5359,-5.5358,-5.581,-5.5848,-5.5808,-5.582,-5.5798,-5.5787,-5.5816,-5.5766,-5.5778,-5.5775,-5.5718,-5.5748,-5.5717,-5.5699,-5.5682,-5.5706,-5.5651,-5.5683,-5.5691,-5.57,-5.5718,-5.5447,-5.5705,-5.5704,-5.5703,-5.5702,-5.5701,0,-5.6089,-5.6057,-5.6069,-5.605,-5.6061,-5.598,-5.5959,-5.5974,-5.6001,-5.5977,-5.5983,-5.6006,-5.6018,-5.5961,-5.5966,-5.5997,-5.5959,-5.6002,-5.5998,-5.5994,-5.5766,-5.5747,-5.6032,-5.6032,-5.6032,-5.6032,-5.6032,-5.6032,-5.6235,-5.6296,-5.6251,-5.6301,-5.6269,-5.6295,-5.6291,-5.6281,-5.6261,-5.629,-5.63,-5.6262,-5.6226,-5.6228,-5.6237,-5.622,-5.6227,-5.6283,-5.6254,-5.6042,-5.601,-5.5979,-5.596,-5.6286,-5.6286,-5.6479,-5.6481,-5.6482]},{"header":{"parameterUnit":"m.s-1","parameterCategory":1,"la1":30.2991,"la2":30.254,"lo1":-89.0895,"lo2":-89.0444,"dy":0.0017,"dx":0.0017,"nx":28,"ny":28,"refTime":"2025-04-01T09:00:00:Z","depth":0,"parameterNumber":3,"parameterNumberName":"V-component_of_WINDS"},"data":[0,0,0,0,0,0,0,0,0,0,0,0,0,0,0,0,0,0,0,0,0,0,0,0,0,0,0,0,0,0,0,0,0,0,0,0,0,0,0,0,0,0,0,0,0,0,0,0,0,0,0,0,0,0,0,0,0,0,0.3585,0.3585,0,0.3557,0.3557,0.3557,0.3579,0.358,0.3581,0.3582,0.3549,0.3547,0.3546,0,0,0,0,0,0,0,0,0,0,0,0,0,0.3655,0.3654,0.3585,0.3585,0.3584,0.3557,0.3557,0.3556,0.3579,0.358,0.3581,0.3582,0.355,0.3548,0.3546,0,0,0,0,0,0,0,0,0,0,0,0,0,0.3626,0.3653,0.3585,0.3592,0.3593,0.3557,0.3557,0.3556,0.3579,0.358,0.3581,0.3583,0.355,0.3548,0.3545,0.35,0,0,0.3537,0.3536,0,0,0,0,0,0,0,0,0.3627,0.3623,0.3592,0.3592,0.3592,0.3573,0.357,0.3537,0.3578,0.3584,0.3582,0.3583,0.3556,0.3553,0.3544,0.3499,0.3497,0.3537,0.3535,0.3534,0.3534,0,0,0,0,0,0,0,0.3629,0.3624,0.3574,0.3591,0.3591,0.3596,0.3594,0.3564,0.3562,0.3583,0.3585,0.3582,0.3556,0.3547,0.3544,0.3497,0.3537,0.3535,0.3533,0.3532,0.3414,0.3413,0,0,0,0,0,0,0.3631,0.3626,0.3575,0.3573,0.3614,0.3594,0.3591,0.3578,0.3562,0.3561,0.358,0.3583,0.3551,0.3547,0.3543,0.3489,0.3534,0.3532,0.353,0.3416,0.3414,0.3412,0,0,0,0,0,0,0.3632,0.3626,0.3576,0.36,0.3594,0.3591,0.3576,0.3576,0.3567,0.356,0.356,0.3571,0.3552,0.3546,0.3511,0.3488,0.3531,0.3528,0.3418,0.3415,0.3413,0.3382,0,0,0,0,0,0,0.3634,0.3627,0.361,0.3599,0.3593,0.3545,0.3575,0.3575,0.3563,0.3566,0.3551,0.355,0.3552,0.3515,0.3509,0.3486,0.3526,0.342,0.3417,0.3414,0.3385,0.3379,0.3374,0,0,0,0,0,0.3637,0.3601,0.3609,0.3602,0.3572,0.3544,0.354,0.3544,0.3561,0.3544,0.354,0.3551,0.3492,0.3511,0.3504,0.348,0.3421,0.3417,0.3414,0.3387,0.338,0.3374,0,0,0,0,0,0,0.3606,0.3599,0.3608,0.3568,0.3557,0.3548,0.3526,0.3536,0.3518,0.3521,0.3526,0.3523,0.3486,0.348,0.3501,0.3436,0.3459,0.3454,0.3442,0.3434,0.3429,0.3431,0.3524,0,0,0,0,0,0.3596,0.3575,0.3569,0.3534,0.3529,0.3528,0.3517,0.3521,0.3509,0.3504,0.3497,0.3484,0.3463,0.3448,0.3428,0.3385,0.3382,0.3365,0.3359,0.3355,0.335,0.3327,0.3319,0.3401,0.3401,0.3401,0,0,0.3572,0.3565,0.3551,0.3528,0.352,0.3498,0.3524,0.3499,0.3482,0.3499,0.3466,0.3461,0.3447,0.3408,0.339,0.3401,0.3327,0.335,0.3347,0.3344,0.3323,0.3315,0.3308,0.3398,0.3399,0.3399,0,0,0.3517,0.351,0.3481,0.3473,0.3461,0.3462,0.3455,0.3445,0.3443,0.341,0.3423,0.3403,0.3366,0.3356,0.3346,0.3291,0.33,0.3284,0.3254,0.3232,0.3225,0.3219,0.32,0.3192,0.328,0.3279,0.3279,0,0.3488,0.3456,0.3464,0.3439,0.3429,0.3446,0.3416,0.3407,0.3389,0.3381,0.3394,0.335,0.3341,0.33,0.3287,0.3279,0.3271,0.3285,0.3226,0.322,0.3215,0.3196,0.3188,0.3278,0.3278,0.3278,0.3278,0,0.3422,0.34,0.3377,0.3361,0.3349,0.3321,0.3324,0.331,0.3317,0.3316,0.3283,0.3274,0.3253,0.3244,0.3249,0.3204,0.3212,0.3225,0.3248,0.3205,0.3187,0.318,0.3275,0.3275,0.3276,0.3276,0,0,0.3344,0.3336,0.3327,0.3321,0.331,0.3293,0.3267,0.3248,0.3236,0.3223,0.3201,0.3171,0.3185,0.3173,0.3178,0.3158,0.3115,0.3175,0.3174,0.3163,0.3065,0.3055,0.3046,0.3123,0.3121,0.312,0.3067,0,0.3289,0.3245,0.3252,0.3209,0.3189,0.3206,0.3183,0.3174,0.3173,0.3156,0.3154,0.3133,0.3152,0.3146,0.3128,0.3124,0.3096,0.3129,0.3101,0.31,0.3103,0.3037,0.3025,0.2974,0.306,0.3059,0.3058,0,0.3218,0.3205,0.316,0.3155,0.3146,0.3126,0.311,0.3094,0.3084,0.3085,0.3074,0.3082,0.3056,0.3081,0.3044,0.3067,0.3056,0.3053,0.3051,0.3048,0.3075,0.3031,0.2958,0.295,0.3047,0.3048,0.3049,0,0.3166,0.3137,0.3107,0.3101,0.3094,0.3079,0.3075,0.3067,0.3056,0.3043,0.3035,0.3018,0.3009,0.2995,0.2999,0.3017,0.2961,0.2986,0.2961,0.296,0.2947,0.2947,0.2871,0.2942,0.2942,0.2942,0.2942,0,0.3103,0.3074,0.3084,0.3065,0.3034,0.3044,0.3012,0.3011,0.3004,0.2985,0.2999,0.298,0.2987,0.2969,0.2971,0.2941,0.2936,0.2936,0.2937,0.2934,0.2934,0.2926,0.2929,0.294,0.294,0.2941,0.2941,0,0.3038,0.3044,0.3012,0.3009,0.3007,0.2985,0.2982,0.2964,0.2966,0.2941,0.2936,0.2938,0.2917,0.2921,0.2897,0.2899,0.2861,0.2867,0.2865,0.2866,0.2839,0.2841,0.2754,0.2743,0.2822,0.2821,0.2821,0,0.2997,0.2976,0.2971,0.2961,0.2956,0.2938,0.2928,0.2937,0.2925,0.2914,0.2898,0.2879,0.2864,0.2831,0.283,0.2812,0.2817,0.2788,0.2814,0.2812,0.2816,0.2817,0.2815,0.2782,0.2781,0.278,0.2779,0,0.2923,0.2927,0.2913,0.2899,0.2887,0.2876,0.2867,0.2857,0.2865,0.2852,0.2832,0.2821,0.2799,0.278,0.2764,0.276,0.277,0.2772,0.2765,0.2761,0.276,0.276,0.2849,0.2773,0.2774,0.2774,0.2774,0.2775,0.2868,0.2851,0.2846,0.2829,0.2824,0.2815,0.2799,0.28,0.2784,0.2768,0.2774,0.2752,0.2744,0.2725,0.2718,0.2701,0.2711,0.2701,0.2698,0.2695,0.2692,0.2765,0.2698,0.2698,0.2698,0.2698,0.2698,0,0.2795,0.2793,0.2778,0.2766,0.2753,0.2767,0.2758,0.2746,0.2727,0.2719,0.2706,0.2684,0.2666,0.2665,0.2648,0.2634,0.2639,0.2629,0.263,0.2629,0.2684,0.2691,0.2626,0.2626,0.2626,0.2626,0.2626,0.2626,0.2755,0.2727,0.2731,0.27,0.2699,0.2678,0.2672,0.2664,0.2659,0.2634,0.262,0.262,0.2615,0.2599,0.2583,0.2583,0.2576,0.2565,0.2566,0.2617,0.2625,0.2631,0.2638,0.2563,0.2563,0.2513,0.2512,0.2512]}]]